Weather History for KATW - January, 2013

Change the Weather History Date:

Saturday, January 5, 2013

  Actual Average Record
Temperature  
Mean Temperature 20 °F -  
Max Temperature 32 °F 22 °F 46 °F (2007)
Min Temperature 8 °F 4 °F -23 °F (1979)
Degree Days  
Heating Degree Days 45    
Moisture  
Dew Point 16 °F    
Average Humidity 91    
Maximum Humidity 100    
Minimum Humidity 80    
Precipitation  
Precipitation 0.00 in - - ()
Sea Level Pressure  
Sea Level Pressure 30.03 in    
Wind  
Wind Speed 4 mph (SSW)    
Max Wind Speed 14 mph    
Max Gust Speed -    
Visibility 9 miles    
Events      
Averages and records for this station are not official NWS values.
T = Trace of Precipitation, MM = Missing Value Source: NWS Daily Summary

Daily Weather History Graph

Daily Weather History Graph

Search for Another Location

Airport or City:

Trip Planner

Search our weather history database for the weather conditions in past years. The results will help you decide how hot, cold, wet, or windy it might be!

Date:

Astronomy

Jan. 05, 2013 Rise Set
Actual Time 7:29 AM CST 4:29 PM CST
Civil Twilight 6:56 AM CST 5:02 PM CST
Nautical Twilight 6:20 AM CST 5:39 PM CST
Astronomical Twilight 5:45 AM CST 6:14 PM CST
Moon 12:27 AM CST 11:26 AM CST
Length of Visible Light 10h 06m
Length of Day
9h 00m
Last Quarter, 44% of the Moon is Illuminated
Jan 5
Last Quarter
Jan 11
New
Jan 18
First Quarter
Jan 26
Full
Feb 3
Last Quarter

Hourly Weather History & Observations

Time (CST) Temp. Windchill Dew Point Humidity Pressure Visibility Wind Dir Wind Speed Gust Speed Precip Events Conditions
12:15 AM 15.8 °F - 12.2 °F 86% 30.15 in 10.0 mi Calm Calm - N/A   Clear
12:35 AM 15.8 °F - 12.2 °F 86% 30.15 in 10.0 mi Calm Calm - N/A   Clear
12:55 AM 14.0 °F - 12.2 °F 93% 30.14 in 10.0 mi Calm Calm - N/A   Clear
1:15 AM 14.0 °F - 12.2 °F 93% 30.15 in 10.0 mi Calm Calm - N/A   Clear
1:35 AM 12.2 °F 1.7 °F 10.4 °F 92% 30.15 in 10.0 mi SW 6.9 mph - N/A   Clear
1:55 AM 14.0 °F 8.2 °F 12.2 °F 93% 30.15 in 10.0 mi WSW 3.5 mph - N/A   Clear
2:15 AM 14.0 °F - 12.2 °F 93% 30.15 in 10.0 mi Calm Calm - N/A   Clear
2:35 AM 14.0 °F 8.2 °F 12.2 °F 93% 30.14 in 10.0 mi East 3.5 mph - N/A   Clear
2:55 AM 12.2 °F - 10.4 °F 92% 30.13 in 10.0 mi Calm Calm - N/A   Clear
3:15 AM 10.4 °F 4.0 °F 8.6 °F 92% 30.14 in 7.0 mi South 3.5 mph - N/A   Clear
3:35 AM 10.4 °F 2.2 °F 10.4 °F 100% 30.15 in 7.0 mi South 4.6 mph - N/A   Clear
3:55 AM 10.4 °F 2.2 °F 10.4 °F 100% 30.15 in 7.0 mi SSW 4.6 mph - N/A   Clear
5:15 AM 8.6 °F -3.7 °F 6.8 °F 92% 30.12 in 10.0 mi SW 8.1 mph - N/A   Clear
5:45 AM 14.0 °F 2.9 °F 12.2 °F 93% 30.12 in 10.0 mi SW 8.1 mph - N/A   Clear
6:45 AM 8.6 °F 0.1 °F 6.8 °F 92% 30.11 in 10.0 mi Variable 4.6 mph - N/A   Scattered Clouds
7:45 AM 10.4 °F 2.2 °F 8.6 °F 92% 30.09 in 10.0 mi Variable 4.6 mph - N/A   Scattered Clouds
8:45 AM 8.6 °F 2.0 °F 8.6 °F 100% 30.09 in 7.0 mi Variable 3.5 mph - N/A   Mostly Cloudy
9:45 AM 12.2 °F 4.3 °F 10.4 °F 92% 30.07 in 7.0 mi Variable 4.6 mph - N/A   Mostly Cloudy
10:45 AM 21.2 °F 10.1 °F 17.6 °F 86% 30.05 in 10.0 mi South 10.4 mph - N/A   Scattered Clouds
11:45 AM 24.8 °F 12.9 °F 19.4 °F 80% 30.02 in 10.0 mi SSW 13.8 mph - N/A   Scattered Clouds
12:45 PM 24.8 °F 14.6 °F 19.4 °F 80% 29.96 in 10.0 mi South 10.4 mph - N/A   Mostly Cloudy
1:45 PM 24.8 °F 14.0 °F 21.2 °F 86% 29.92 in 10.0 mi South 11.5 mph - N/A   Mostly Cloudy
2:45 PM 26.6 °F 16.2 °F 23.0 °F 86% 29.89 in 10.0 mi South 11.5 mph - N/A   Mostly Cloudy
3:45 PM 28.4 °F 18.5 °F 24.8 °F 86% 29.88 in 10.0 mi South 11.5 mph - N/A   Mostly Cloudy
4:45 PM 26.6 °F 15.2 °F 24.8 °F 93% 29.87 in 7.0 mi South 13.8 mph - N/A   Mostly Cloudy
6:45 PM 28.4 °F 18.5 °F 24.8 °F 86% 29.87 in 10.0 mi SSW 11.5 mph - N/A   Mostly Cloudy
10:15 PM 30.2 °F 25.4 °F 28.4 °F 93% 29.84 in 10.0 mi SSW 4.6 mph - N/A   Overcast
10:45 PM 28.4 °F 23.3 °F 28.4 °F 100% 29.84 in 10.0 mi SSW 4.6 mph - N/A   Overcast
11:15 PM 32.0 °F 28.7 °F 30.2 °F 93% 29.83 in 10.0 mi West 3.5 mph - N/A   Overcast
11:35 PM 32.0 °F 23.6 °F 30.2 °F 93% 29.83 in 10.0 mi West 10.4 mph - N/A   Overcast
11:55 PM 32.0 °F 23.0 °F 28.4 °F 87% 29.83 in 10.0 mi WNW 11.5 mph - N/A   Overcast